User: anonymous   Login
Location: Brno
(49.2000°N, 16.6330°E)
Time: 08:54:20
(UTC+01:00)
Language:

Meteor 1-4 Rocket - Orbit

View from above orbital plane
View from above orbital plane
View from above satellite
View from above satellite

Ground track
Ground track

The orbit data is extracted from the following two-line orbital elements,

1  4394U 70037B   18054.55719275 +.00000892 +00000-0 +30193-4 0  9995
2  4394 081.2399 079.5774 0039835 347.2969 012.7259 15.28668357603636
Epoch (UTC): 23 February 2018 13:22:21
Eccentricity: 0.0039835
inclination: 81.2399°
perigee height: 452 km
apogee height: 507 km
right ascension of ascending node: 79.5774°
argument of perigee: 347.2969°
revolutions per day: 15.28668357
mean anomaly at epoch: 12.7259°
orbit number at epoch: 60363

The dashed part of the orbit path shows where the satellite is in the earth's shadow,  

DLR